Location: *
(46.1333°S, 161.2167°W)
Time: 09:41:36
(UTC+00:00)

Cosmos 2298 Rocket - Pass Details

Date: 26 October 2020
Orbit: 776 x 783 km, 74.0° (Epoch: 04 December)

Event Time Altitude Azimuth Distance (km) Brightness Sun altitude
Exits shadow 11:39:23 69° 130° (SE) 850 4.2 -29.1°
Drops below altitude 10° 11:44:12 10° 156° (SSE) 2,375 7.5 -28.8°
Sets 11:46:37 0° 157° (SSE) 3,311 8.5 -28.6°
